Regional Weather Roundup
Issued by NWS Charleston, SC

Current Version | Previous Version | Graphics & Text | Print | Product List | Glossary On
Versions: 1 2 3 4 5 6 7 8 9 10 11 12 13 14 15 16 17 18 19 20 21 22 23 24 25 26 27 28 29 30 31 32 33 34 35 36 37 38 39 40 41 42 43 44 45 46 47 48 49 50
748 ASUS42 KCHS 092112 RWRCHS REGIONAL WEATHER ROUNDUP NATIONAL WEATHER SERVICE CHARLESTON SC 400 PM EST TUE FEB 09 2016 NOTE: "FAIR" INDICATES FEW OR NO CLOUDS BELOW 12,000 FEET WITH NO SIGNIFICANT WEATHER AND/OR OBSTRUCTIONS TO VISIBILITY. NOT ALL STATIONS ARE QUALITY CONTROLLED BY THE NATIONAL WEATHER SERVICE. USE DATA WITH CAUTION...ESPECIALLY DEWPOINT OBSERVATIONS. SCZ027-030-031-034>040-042>050-092200- ...SOUTHEAST SOUTH CAROLINA... CITY SKY/WX TMP DP RH WIND PRES REMARKS N CHARLESTON PTSUNNY 45 22 40 W16G29 29.80R WATERFRONT PRK N/A 44 28 53 W8 29.63S MOUNT PLEASANT CLOUDY 45 28 53 W9G17 29.79R JOHNS ISLAND CLOUDY 45 25 45 W12G20 29.81R PINOPOLIS N/A 43 28 56 W21 29.71R MONCKS CORNER CLOUDY 41 23 48 SW6 29.79R SUMMERVILLE CLOUDY 43 28 56 W9G18 29.81R BEAUFORT MCAS PTSUNNY 45 22 40 W17G28 29.83R BEAUFORT ARPT MOCLDY 45 25 45 W17G30 29.83R HILTON HEAD IS NOT AVBL WALTERBORO CLOUDY 43 23 45 W17G26 29.83R ALLENDALE CLOUDY 43 21 42 VRB5G16 29.83R ...SOUTHERN MIDLANDS AND PEE DEE... CITY SKY/WX TMP DP RH WIND PRES REMARKS GEORGETOWN NOT AVBL KINGSTREE NOT AVBL ORANGEBURG CLOUDY 40 23 50 W16G24 29.80R WCI 31 BARNWELL CLOUDY 41 23 48 W9G20 29.83R AIKEN CLOUDY 36 21 55 W10G18 29.83R WCI 28 MANNING CLOUDY 41 23 48 W7G20 29.78R COLUMBIA FLURRIES 40 23 50 W15 29.79R WCI 32 SUMTER CLOUDY 41 22 47 W18G25 29.75R FLORENCE CLOUDY 41 23 48 W17G28 29.75R MYRTLE BEACH PTSUNNY 45 23 42 W17G24 29.75R N MYRTLE BEACH CLOUDY 45 25 45 W10G23 29.73R $$ GAZ063-065-086>088-099>101-113>116-118-119-134>141-150-092200- ...SOUTHEAST GEORGIA... CITY SKY/WX TMP DP RH WIND PRES REMARKS SAVANNAH ARPT PTSUNNY 48 22 35 NW17 29.84R HUNTER AAF MOSUNNY 48 23 37 W20 29.81R FORT STEWART MOSUNNY 49 21 32 W22G36 29.82R STATESBORO CLOUDY 47 16 29 NW17 29.85R SYLVANIA CLOUDY 44 27 50 NW13G18 29.84S CLAXTON CLOUDY 47 28 46 W20 29.84S ...CSRA...CENTRAL AND FAR SOUTHEAST GEORGIA... CITY SKY/WX TMP DP RH WIND PRES REMARKS THOMSON CLOUDY 40 25 54 W8G20 29.87R WCI 35 AUGUSTA-BUSH CLOUDY 40 20 44 W16G23 29.84R WCI 31 AUGUSTA-DANIEL CLOUDY 39 19 44 VRB5 29.83R WCI 36 SWAINSBORO CLOUDY 43 23 45 W13G22 29.85S VIDALIA CLOUDY 45 23 42 NW10G22 29.84S EASTMAN CLOUDY 47 21 36 W9G18 29.88S HAZLEHURST MOCLDY 50 21 32 W9G21 29.84R ALMA MOSUNNY 50 21 32 W13G22 29.85S WAYCROSS SUNNY 54 25 32 W18G30 29.86S JESUP FAIR 52 27 37 W15G25 29.86R BAXLEY PTSUNNY 50 23 34 W12G28 29.85R BRUNSWICK SUNNY 52 23 32 W16G28 29.86S SAINT SIMONS SUNNY 51 21 30 W21G33 29.85R $$ SCZ027-028-034-036>038-045-046-048>050-GAZ119-141-092200- ...LAKE AND SUPPLEMENTAL COASTAL OBSERVATIONS... STATION/POSITION TIME TEMP WIND PRES WAVE SWELL AIR SEA DIR/SP/G HT/PER HT/PER/DIR (UTC) (F) (DEG/KT/KT) (MB) (FT/S) (FT/S/D) WINYAH BAY NOT AVBL LAKE MURRAY 2000 40 260/ 18/ 26 1007.1S ACE BASIN NERRS NOT AVBL FORT PULASKI 2000 45 51 270/ 19/ 23 1010.1F SAPELO ISLAND 2000 49 260/ 21 1010.0F $$ ANZ835-935-AMZ111-154-330-350-352-354-370-450-454-472-092200- ...C-MAN AND BUOY OBSERVATIONS... STATION/POSITION TIME TEMP WIND PRES WAVE SWELL AIR SEA DIR/SP/G HT/PER HT/PER/DIR (UTC) (F) (DEG/KT/KT) (MB) (FT/S) (FT/S/D) BUOY 41004 2050 48 65 270/ 23/ 29 1007.6R 9/ 7 2/13 BUOY 41008 2050 49 54 270/ 23/ 29 1010.4S 5/ 5 FOLLY BEACH CMAN 2000 44 260/ 13/ 20 1008.6R CAPERS NEARSHORE 2008 45 290/ 19/ 25 1007.8R FRIPP NEARSHORE 2000 45 270/ 29/ 31 1009.3R STATION/POSITION TIME TEMP WIND PRES WAVE SWELL AIR SEA DIR/SP/G HT/PER HT/PER/DIR (UTC) (F) (DEG/KT/KT) (MB) (FT/S) (FT/S/D) 5E ST. MARYS GA 2021 56 N/A 4/ 4 2/ 90/17 FRYING PAN BUOY 2000 46 53 250/ 21/ 29 1006.5S BUOY 41025 2050 48 74 290/ 14/ 21 1003.5R 10/15 8/ 80/15 CAPE LOOKOUT NC NOT AVBL BUOY 41002 2050 56 69 270/ 25/ 33 N/A 14/11 10/260/11 BUOY 41010 2020 58 72 1013.5F ST AUGUSTINE FL 2100 56 57 260/ 22/ 30 1012.1R $$

USA.gov is the U.S. government's official web portal to all federal, state and local government web resources and services.